When you browse on this site, cookies collect data to enhance your experience and personalize the content and advertising you see.
Visit our Privacy Policy to learn more. By continuing to use the site, you agree to this use of cookies and data.
  • In Hungary
  • List of Countries
  • For 7 days
  • Water Temperature
  • Satellite Maps
  • Weather Map
  • News
  • Weather Widgets
  • user-avatar
    Login

    Hourly Weather Nawazibu

    Today, 24 January, Thursday

    Time Temperature Precipitation Wind Pressure Humidity
    00:00 +17°C° 0 mm 6 mps 763 mmHg 34%
    01:00 +17°C° 0 mm 6 mps 762 mmHg 29%
    02:00 +17°C° 0 mm 5 mps 762 mmHg 23%
    03:00 +16°C° 0 mm 5 mps 762 mmHg 24%
    04:00 +16°C° 0 mm 5 mps 762 mmHg 25%
    05:00 +16°C° 0 mm 5 mps 762 mmHg 26%
    06:00 +16°C° 0 mm 5 mps 762 mmHg 28%
    07:00 +16°C° 0 mm 5 mps 762 mmHg 30%
    08:00 +16°C° 0 mm 5 mps 762 mmHg 32%
    09:00 +19°C° 0 mm 4 mps 762 mmHg 27%
    10:00 +22°C° 0 mm 4 mps 762 mmHg 22%
    11:00 +25°C° 0 mm 3 mps 762 mmHg 18%
    12:00 +26°C° 0 mm 3 mps 761 mmHg 17%
    13:00 +27°C° 0 mm 3 mps 761 mmHg 17%
    14:00 +27°C° 0 mm 3 mps 760 mmHg 16%
    15:00 +26°C° 0 mm 5 mps 760 mmHg 21%
    16:00 +24°C° 0 mm 6 mps 760 mmHg 27%
    17:00 +23°C° 0 mm 7 mps 760 mmHg 32%
    18:00 +22°C° 0 mm 7 mps 760 mmHg 39%
    19:00 +20°C° 0 mm 7 mps 761 mmHg 46%
    20:00 +18°C° 0 mm 8 mps 761 mmHg 52%
    21:00 +17°C° 0 mm 7 mps 761 mmHg 54%
    22:00 +17°C° 0 mm 7 mps 761 mmHg 55%
    23:00 +17°C° 0 mm 7 mps 761 mmHg 57%

    Tomorrow, 25 January, Friday

    Time Temperature Precipitation Wind Pressure Humidity
    00:00 +16°C° 0 mm 7 mps 761 mmHg 56%
    01:00 +16°C° 0 mm 7 mps 761 mmHg 55%
    02:00 +16°C° 0 mm 7 mps 761 mmHg 54%
    03:00 +15°C° 0 mm 6 mps 761 mmHg 53%
    04:00 +15°C° 0 mm 6 mps 761 mmHg 52%
    05:00 +15°C° 0 mm 5 mps 760 mmHg 51%
    06:00 +15°C° 0 mm 5 mps 761 mmHg 50%
    07:00 +15°C° 0 mm 4 mps 761 mmHg 49%
    08:00 +15°C° 0 mm 4 mps 761 mmHg 48%
    09:00 +18°C° 0 mm 4 mps 762 mmHg 41%
    10:00 +21°C° 0 mm 3 mps 762 mmHg 34%
    11:00 +24°C° 0 mm 2 mps 762 mmHg 27%
    12:00 +24°C° 0 mm 3 mps 761 mmHg 25%
    13:00 +25°C° 0 mm 3 mps 761 mmHg 24%
    14:00 +26°C° 0 mm 3 mps 760 mmHg 22%
    15:00 +25°C° 0 mm 4 mps 760 mmHg 27%
    16:00 +23°C° 0 mm 5 mps 760 mmHg 33%
    17:00 +23°C° 0 mm 6 mps 760 mmHg 38%
    18:00 +22°C° 0 mm 6 mps 760 mmHg 43%
    19:00 +20°C° 0 mm 6 mps 761 mmHg 48%
    20:00 +19°C° 0 mm 6 mps 761 mmHg 53%
    21:00 +19°C° 0 mm 6 mps 761 mmHg 54%
    22:00 +19°C° 0 mm 6 mps 761 mmHg 55%
    23:00 +18°C° 0 mm 7 mps 762 mmHg 56%

    Day after tomorrow, 26 January, Saturday

    Time Temperature Precipitation Wind Pressure Humidity
    00:00 +19°C° 0 mm 6 mps 761 mmHg 55%
    01:00 +17°C° 0 mm 6 mps 761 mmHg 54%
    02:00 +17°C° 0 mm 6 mps 761 mmHg 53%
    03:00 +17°C° 0 mm 6 mps 761 mmHg 48%
    04:00 +17°C° 0 mm 5 mps 761 mmHg 42%
    05:00 +17°C° 0 mm 5 mps 761 mmHg 37%
    06:00 +17°C° 0 mm 5 mps 761 mmHg 34%
    07:00 +19°C° 0 mm 4 mps 762 mmHg 31%
    08:00 +19°C° 0 mm 4 mps 762 mmHg 28%
    09:00 +22°C° 0 mm 4 mps 762 mmHg 24%
    10:00 +25°C° 0 mm 4 mps 763 mmHg 20%
    11:00 +27°C° 0 mm 4 mps 763 mmHg 16%
    12:00 +28°C° 0 mm 3 mps 762 mmHg 15%
    13:00 +28°C° 0 mm 2 mps 762 mmHg 15%
    14:00 +29°C° 0 mm 2 mps 761 mmHg 14%
    15:00 +27°C° 0 mm 3 mps 761 mmHg 19%
    16:00 +26°C° 0 mm 4 mps 761 mmHg 24%
    17:00 +25°C° 0 mm 4 mps 761 mmHg 29%
    18:00 +23°C° 0 mm 5 mps 762 mmHg 32%
    19:00 +22°C° 0 mm 5 mps 763 mmHg 35%
    20:00 +21°C° 0 mm 5 mps 763 mmHg 38%
    21:00 +21°C° 0 mm 6 mps 763 mmHg 36%
    22:00 +21°C° 0 mm 6 mps 763 mmHg 34%
    23:00 +21°C° 0 mm 6 mps 764 mmHg 31%

    27 January, Sunday

    Time Temperature Precipitation Wind Pressure Humidity
    00:00 +21°C° 0 mm 6 mps 763 mmHg 28%
    01:00 +21°C° 0 mm 6 mps 763 mmHg 25%
    02:00 +21°C° 0 mm 6 mps 763 mmHg 23%
    03:00 +21°C° 0 mm 5 mps 763 mmHg 25%
    04:00 +20°C° 0 mm 5 mps 763 mmHg 28%
    05:00 +20°C° 0 mm 5 mps 763 mmHg 30%
    06:00 +20°C° 0 mm 5 mps 763 mmHg 30%
    07:00 +20°C° 0 mm 5 mps 763 mmHg 30%
    08:00 +20°C° 0 mm 5 mps 764 mmHg 30%
    09:00 +23°C° 0 mm 5 mps 764 mmHg 26%
    10:00 +26°C° 0 mm 4 mps 764 mmHg 22%
    11:00 +28°C° 0 mm 4 mps 764 mmHg 18%
    12:00 +29°C° 0 mm 3 mps 764 mmHg 16%
    13:00 +30°C° 0 mm 3 mps 763 mmHg 15%
    14:00 +31°C° 0 mm 2 mps 762 mmHg 13%
    15:00 +30°C° 0 mm 3 mps 762 mmHg 15%
    16:00 +29°C° 0 mm 5 mps 762 mmHg 17%
    17:00 +29°C° 0 mm 7 mps 762 mmHg 19%
    18:00 +27°C° 0 mm 7 mps 763 mmHg 25%
    19:00 +24°C° 0 mm 8 mps 764 mmHg 31%
    20:00 +23°C° 0 mm 8 mps 764 mmHg 38%
    21:00 +22°C° 0 mm 8 mps 764 mmHg 40%
    22:00 +22°C° 0 mm 8 mps 764 mmHg 41%
    23:00 +21°C° 0 mm 7 mps 764 mmHg 43%

    28 January, Monday

    Time Temperature Precipitation Wind Pressure Humidity
    00:00 +21°C° 0 mm 7 mps 764 mmHg 43%
    01:00 +20°C° 0 mm 7 mps 763 mmHg 42%
    02:00 +20°C° 0 mm 7 mps 763 mmHg 41%
    03:00 +19°C° 0 mm 6 mps 763 mmHg 43%
    04:00 +19°C° 0 mm 6 mps 763 mmHg 45%
    05:00 +19°C° 0 mm 6 mps 763 mmHg 47%
    06:00 +19°C° 0 mm 6 mps 763 mmHg 47%
    07:00 +19°C° 0 mm 6 mps 764 mmHg 47%
    08:00 +19°C° 0 mm 6 mps 764 mmHg 47%
    09:00 +21°C° 0 mm 6 mps 764 mmHg 41%
    10:00 +23°C° 0 mm 6 mps 764 mmHg 35%
    11:00 +26°C° 0 mm 5 mps 764 mmHg 29%
    12:00 +28°C° 0 mm 6 mps 764 mmHg 26%
    13:00 +29°C° 0 mm 6 mps 763 mmHg 24%
    14:00 +30°C° 0 mm 6 mps 762 mmHg 21%
    15:00 +29°C° 0 mm 7 mps 762 mmHg 23%
    16:00 +29°C° 0 mm 8 mps 762 mmHg 25%
    17:00 +28°C° 0 mm 8 mps 762 mmHg 27%
    18:00 +26°C° 0 mm 9 mps 762 mmHg 31%
    19:00 +24°C° 0 mm 9 mps 763 mmHg 36%
    20:00 +22°C° 0 mm 9 mps 763 mmHg 40%
    21:00 +22°C° 0 mm 9 mps 763 mmHg 39%
    22:00 +21°C° 0 mm 8 mps 763 mmHg 38%
    23:00 +21°C° 0 mm 8 mps 763 mmHg 37%

    29 January, Tuesday

    Time Temperature Precipitation Wind Pressure Humidity
    00:00 +20°C° 0 mm 8 mps 763 mmHg 41%
    01:00 +20°C° 0 mm 8 mps 763 mmHg 45%
    02:00 +18°C° 0 mm 7 mps 762 mmHg 48%
    03:00 +17°C° 0 mm 7 mps 763 mmHg 51%
    04:00 +17°C° 0 mm 7 mps 763 mmHg 54%
    05:00 +17°C° 0 mm 6 mps 763 mmHg 56%
    06:00 +17°C° 0 mm 7 mps 763 mmHg 56%
    07:00 +17°C° 0 mm 7 mps 764 mmHg 56%
    08:00 +17°C° 0 mm 7 mps 764 mmHg 56%
    09:00 +20°C° 0 mm 6 mps 764 mmHg 48%
    10:00 +22°C° 0 mm 6 mps 764 mmHg 39%
    11:00 +26°C° 0 mm 5 mps 764 mmHg 30%
    12:00 +27°C° 0 mm 5 mps 764 mmHg 27%
    13:00 +28°C° 0 mm 4 mps 763 mmHg 23%
    14:00 +29°C° 0 mm 4 mps 762 mmHg 20%
    15:00 +29°C° 0 mm 5 mps 762 mmHg 21%
    16:00 +29°C° 0 mm 5 mps 762 mmHg 21%
    17:00 +28°C° 0 mm 6 mps 762 mmHg 22%
    18:00 +27°C° 0 mm 6 mps 762 mmHg 26%
    19:00 +24°C° 0 mm 7 mps 762 mmHg 30%
    20:00 +23°C° 0 mm 7 mps 763 mmHg 33%
    21:00 +22°C° 0 mm 7 mps 763 mmHg 35%
    22:00 +22°C° 0 mm 7 mps 763 mmHg 36%
    23:00 +21°C° 0 mm 8 mps 763 mmHg 38%
    Show more